Location: Munkebjergskolens Observatorium
(55.3864°N, 10.3987°E)
Time: 09:17:47
(UTC+02:00)

JY1SAT - Pass Details

Date: 09 April 2023
Orbit: 555 x 574 km, 97.6° (Epoch: 03 June)

Event Time Altitude Azimuth Distance (km) Brightness Sun altitude
Exits shadow 22:03:25 25° 148° (SSE) 1,157 ? -14.9°
Maximum altitude 22:05:38 67° 72° (ENE) 620 ? -15.2°
Drops below altitude 10° 22:09:42 10° 350° (N) 1,890 ? -15.6°
Sets 22:11:53 0° 348° (NNW) 2,796 ? -15.9°
